Date,TemperatureHighF,TemperatureAvgF,TemperatureLowF,DewpointHighF,DewpointAvgF,DewpointLowF,HumidityHigh,HumidityAvg,HumidityLow,PressureMaxIn,PressureMinIn,WindSpeedMaxMPH,WindSpeedAvgMPH,GustSpeedMaxMPH,PrecipitationSumIn
2013-1-1,54.4,52.2,46.1,53.3,50.1,44.5,96,93,78,30.05,29.89,15,1,15,1.74
2013-1-2,45.8,39.7,36.5,44.5,37.1,33.5,95,90,87,30.19,30.01,8,0,8,0.00
2013-1-3,45.3,36.2,28.3,33.6,30.2,24.9,90,79,54,30.36,30.16,9,0,9,0.00
2013-1-4,51.4,36.3,25.7,31.0,27.4,23.6,93,73,39,30.43,30.33,10,0,10,0.00
2013-1-5,36.9,29.2,27.5,31.4,26.9,25.5,93,91,81,30.41,30.34,2,0,2,0.00
2013-1-6,51.4,42.4,34.8,41.4,38.9,32.5,95,88,67,30.28,30.18,7,0,10,0.00
2013-1-7,56.7,38.9,26.9,36.4,31.6,25.1,95,78,45,30.34,30.23,9,0,9,0.01
2013-1-8,61.9,50.3,34.5,52.4,42.6,30.6,87,75,63,30.30,30.18,9,1,9,0.00
2013-1-9,62.1,57.5,51.9,58.8,54.3,48.8,96,89,82,30.32,30.22,11,1,11,0.27
2013-1-10,69.0,64.3,59.6,65.8,62.4,58.4,97,94,86,30.27,29.94,19,2,22,0.01
2013-1-11,66.8,64.8,62.0,65.3,62.9,60.6,97,94,85,30.09,30.01,17,1,17,0.40
2013-1-12,72.5,68.2,63.2,66.4,64.1,59.8,96,87,78,30.06,29.91,14,2,14,0.03
2013-1-13,71.9,64.4,47.6,66.7,61.8,46.0,95,91,82,30.07,29.86,17,2,18,0.72
2013-1-14,47.4,40.7,35.7,46.0,39.4,34.2,96,95,94,30.19,30.03,16,1,16,0.78
2013-1-15,47.7,42.3,38.2,46.9,41.3,37.1,97,96,96,30.08,29.91,7,0,7,0.02
2013-1-16,45.4,40.9,39.6,44.6,39.9,38.3,97,96,95,30.06,29.93,10,0,10,0.25
2013-1-17,40.0,36.3,31.8,39.0,34.8,30.2,96,94,90,30.35,29.88,24,2,24,0.44
2013-1-18,52.9,37.8,28.7,36.8,32.2,27.3,100,82,49,30.55,30.35,10,0,12,0.04
2013-1-19,57.7,40.4,25.7,37.7,32.1,24.2,95,76,43,30.41,30.20,11,1,11,0.01
2013-1-20,63.4,43.6,28.8,43.6,36.0,27.3,95,78,47,30.24,30.10,9,0,9,0.00
2013-1-21,54.2,40.7,30.1,42.4,32.0,22.2,96,73,46,30.22,30.08,10,0,10,0.00
2013-1-22,47.2,35.0,26.1,27.1,23.1,19.3,87,63,42,30.38,30.21,11,0,11,0.00
2013-1-23,34.4,30.8,27.4,30.3,27.7,24.0,90,88,84,30.35,30.30,1,0,1,0.00
2013-1-25,62.7,56.1,51.3,56.3,53.3,49.8,95,91,76,30.13,30.07,9,1,9,0.15
2013-1-26,56.7,47.0,39.5,49.9,41.4,37.0,95,82,51,30.28,30.12,6,0,6,0.01
2013-1-27,62.4,52.5,44.3,43.5,40.5,37.3,89,65,47,30.32,30.23,11,1,11,0.00
2013-1-28,68.8,56.3,48.9,56.9,49.8,41.1,94,79,64,30.29,30.15,12,1,12,0.00
2013-1-29,72.7,64.0,53.5,66.0,60.6,51.2,96,89,79,30.15,29.75,17,2,17,0.11
2013-1-30,70.4,56.2,40.7,66.9,52.4,32.4,96,87,68,29.98,29.56,26,5,26,0.32
2013-1-31,51.4,40.9,31.7,33.6,29.2,26.8,83,64,43,30.19,29.98,13,2,13,0.02